Janesville, WI

2:26 PM CDT on May 23, 2018 (GMT -0500)
Rock County

Weather History for KJVL - June, 2013

Change the Weather History Date:

Thursday, June 6, 2013

  Actual Average Record
Temperature  
Mean Temperature 58 °F -  
Max Temperature 60 °F 71 °F 96 °F (2011)
Min Temperature 55 °F 54 °F 44 °F (1993)
Degree Days  
Heating Degree Days 8    
Growing Degree Days 8 (Base 50)    
Moisture  
Dew Point 50 °F    
Average Humidity 79    
Maximum Humidity 88    
Minimum Humidity 72    
Precipitation  
Precipitation 0.09 in - - ()
Sea Level Pressure  
Sea Level Pressure 29.93 in    
Wind  
Wind Speed 6 mph (East)    
Max Wind Speed 14 mph    
Max Gust Speed -    
Visibility 9 miles    
Events Rain    
Averages and records for this station are not official NWS values.
T = Trace of Precipitation, MM = Missing Value Source: NWS Daily Summary

Daily Weather History Graph

Daily Weather History Graph

Search for Another Location

Airport or City:

Astronomy

Jun. 06, 2013 Rise Set
Actual Time 5:19 AM CDT 8:31 PM CDT
Civil Twilight 4:44 AM CDT 9:05 PM CDT
Nautical Twilight 4:00 AM CDT 9:50 PM CDT
Astronomical Twilight 3:06 AM CDT 10:44 PM CDT
Moon 4:02 AM CDT (6/6) 6:50 PM CDT (6/6)
Length of Visible Light 16h 21m
Length of Day
15h 12m
Waning Crescent, 3% of the Moon is Illuminated
Jun 6
Waning Crescent
Jun 8
New
Jun 16
First Quarter
Jun 23
Full
Jun 29
Last Quarter

Hourly Weather History & Observations

Time (CDT) Temp. Dew Point Humidity Pressure Visibility Wind Dir Wind Speed Gust Speed Precip Events Conditions
12:15 AM 55.4 °F 46.4 °F 72% 29.95 in 10.0 mi ESE 5.8 mph - N/A   Overcast
12:35 AM 55.4 °F 46.4 °F 72% 29.95 in 10.0 mi SSE 3.5 mph - N/A   Overcast
12:55 AM 55.4 °F 46.4 °F 72% 29.95 in 10.0 mi ESE 3.5 mph - N/A   Overcast
1:15 AM 55.4 °F 46.4 °F 72% 29.94 in 10.0 mi ESE 5.8 mph - N/A   Overcast
1:35 AM 57.2 °F 48.2 °F 72% 29.94 in 10.0 mi ESE 4.6 mph - N/A   Overcast
1:55 AM 57.2 °F 48.2 °F 72% 29.93 in 10.0 mi ESE 5.8 mph - N/A Rain Light Rain
2:15 AM 55.4 °F 48.2 °F 77% 29.93 in 10.0 mi ESE 8.1 mph - N/A Rain Light Rain
2:35 AM 55.4 °F 50.0 °F 82% 29.92 in 10.0 mi ESE 9.2 mph - 0.01 in   Overcast
2:55 AM 55.4 °F 48.2 °F 77% 29.92 in 10.0 mi East 5.8 mph - 0.01 in   Overcast
3:15 AM 55.4 °F 48.2 °F 77% 29.91 in 10.0 mi East 4.6 mph - N/A   Overcast
3:35 AM 55.4 °F 50.0 °F 82% 29.91 in 10.0 mi East 5.8 mph - N/A   Overcast
3:55 AM 55.4 °F 50.0 °F 82% 29.90 in 10.0 mi East 5.8 mph - N/A   Overcast
4:15 AM 55.4 °F 50.0 °F 82% 29.90 in 10.0 mi ESE 4.6 mph - 0.01 in Rain Heavy Rain
4:35 AM 55.4 °F 51.8 °F 88% 29.90 in 7.0 mi ENE 4.6 mph - 0.07 in Rain Light Rain
4:55 AM 55.4 °F 51.8 °F 88% 29.90 in 10.0 mi ENE 4.6 mph - 0.07 in   Mostly Cloudy
5:15 AM 55.4 °F 51.8 °F 88% 29.90 in 10.0 mi ENE 4.6 mph - 0.01 in   Overcast
5:35 AM 55.4 °F 51.8 °F 88% 29.90 in 10.0 mi East 4.6 mph - 0.01 in   Overcast
5:45 AM 57.2 °F 51.8 °F 82% 29.90 in 10.0 mi Calm Calm - N/A   Overcast
7:45 AM 57.2 °F 51.8 °F 82% 29.92 in 5.0 mi East 5.8 mph - N/A   Overcast
9:45 AM 57.2 °F 51.8 °F 82% 29.94 in 7.0 mi ESE 5.8 mph - N/A   Overcast
11:45 AM 59.0 °F 53.6 °F 82% 29.93 in 6.0 mi ENE 13.8 mph - N/A   Overcast
12:45 PM 59.0 °F 53.6 °F 82% 29.93 in 6.0 mi ENE 11.5 mph - N/A   Overcast
1:45 PM 59.0 °F 51.8 °F 77% 29.93 in 6.0 mi ENE 11.5 mph - N/A   Overcast
2:45 PM 59.0 °F 53.6 °F 82% 29.93 in 6.0 mi ENE 9.2 mph - N/A   Overcast
3:45 PM 59.0 °F 51.8 °F 77% 29.93 in 6.0 mi East 8.1 mph - N/A   Haze
4:45 PM 59.0 °F 51.8 °F 77% 29.93 in 7.0 mi NE 9.2 mph - N/A   Overcast
5:45 PM 60.8 °F 51.8 °F 72% 29.93 in 10.0 mi NE 6.9 mph - N/A   Overcast
6:45 PM 59.0 °F 50.0 °F 72% 29.94 in 10.0 mi Calm Calm - N/A   Overcast
7:45 PM 57.2 °F 48.2 °F 72% 29.94 in 10.0 mi NE 5.8 mph - N/A   Overcast
8:45 PM 57.2 °F 48.2 °F 72% 29.93 in 10.0 mi NE 5.8 mph - N/A   Overcast
9:15 PM 57.2 °F 48.2 °F 72% 29.93 in 10.0 mi NE 4.6 mph - N/A   Overcast
9:35 PM 57.2 °F 50.0 °F 77% 29.94 in 10.0 mi NE 4.6 mph - N/A   Overcast
9:55 PM 57.2 °F 50.0 °F 77% 29.95 in 10.0 mi ENE 4.6 mph - N/A   Overcast
10:15 PM 57.2 °F 50.0 °F 77% 29.95 in 10.0 mi NE 4.6 mph - N/A   Overcast
10:35 PM 55.4 °F 50.0 °F 82% 29.95 in 10.0 mi ENE 3.5 mph - N/A   Overcast
10:55 PM 55.4 °F 50.0 °F 82% 29.95 in 10.0 mi ENE 4.6 mph - N/A   Overcast
11:15 PM 55.4 °F 50.0 °F 82% 29.95 in 10.0 mi ENE 3.5 mph - N/A   Overcast
11:35 PM 55.4 °F 51.8 °F 88% 29.95 in 10.0 mi Calm Calm - N/A   Overcast
11:55 PM 55.4 °F 50.0 °F 82% 29.94 in 10.0 mi NNE 3.5 mph - N/A   Overcast